Wind_Speed
6 9 11 11 12 12 11 12 14 11 6 8 15 17 18 24 27 28 29 29 30 33 31 30 30 30 28 22 7 9 21 26 27 30 33 36 35 35 42 38 37 37 37 38
10 14 8 8 8 9 9 11 10 11 8 11 14 17 17 22 25 28 30 32 31 33 38 39 38 35 39 36 26 13 11 20 27 30 32 34 33 34 38 41 39 43 44 43
9 10 8 7 9 10 9 10 9 9 7 8 8 16 11 14 21 23 27 27 30 32 34 37 39 38 38 45 39 31 25 18 21 30 31 32 32 33 33 34 39 45 45 46
12 6 7 7 8 3 8 5 3 4 8 3 4 5 9 7 13 18 20 22 26 27 29 31 35 37 37 37 40 40 35 29 18 21 32 32 35 38 39 37 37 38 45 49
6 8 7 8 4 2 5 3 0 3 8 9 5 3 4 4 11 13 17 18 20 23 25 29 30 31 35 35 40 45 42 38 34 16 24 35 36 38 35 34 36 37 43 50
11 6 4 4 1 1 1 6 6 5 4 3 4 4 6 4 7 11 15 16 19 20 23 24 25 28 31 35 42 42 46 47 44 27 14 25 36 34 33 32 35 34 35 38
11 5 5 2 6 2 5 8 4 5 5 3 2 0 8 2 6 9 13 17 19 21 23 24 26 28 30 33 37 41 43 47 48 50 34 12 21 32 36 33 35 34 33 34
7 7 3 2 2 2 4 2 2 4 3 3 4 4 6 4 7 8 11 14 17 20 23 24 24 26 28 30 34 37 36 40 44 47 47 45 23 12 26 32 33 35 36 34
6 5 4 2 1 4 4 3 2 3 2 3 5 5 7 3 4 6 9 12 15 18 20 22 24 25 27 29 30 36 38 37 36 37 43 42 43 40 17 12 28 28 36 37
4 7 3 5 5 4 4 4 3 2 4 3 6 3 3 5 2 4 7 9 12 14 17 19 22 24 25 25 26 31 33 38 37 34 35 40 39 36 37 33 19 21 22 29
6 2 6 7 3 5 6 5 1 1 3 2 2 3 5 4 1 3 6 7 9 12 15 17 20 21 23 24 26 27 31 35 38 36 33 34 37 37 34 35 31 30 19 16
1 2 6 4 1 1 1 2 3 4 5 2 4 0 8 5 1 4 5 5 7 11 14 16 18 20 23 25 28 28 28 31 33 36 36 31 31 33 32 32 34 29 27 25
5 3 6 6 4 3 6 6 3 3 1 9 3 4 10 8 1 4 7 6 8 11 14 17 19 21 24 26 27 28 29 30 30 30 33 35 34 31 34 33 32 33 30 27
1 3 2 1 5 6 7 12 10 7 4 4 10 2 11 12 7 7 6 6 9 11 14 17 20 23 24 26 28 28 26 25 26 26 30 31 32 35 33 34 36 33 33 30
2 3 4 3 3 3 5 12 14 15 12 7 2 6 4 5 7 5 5 7 10 12 14 16 20 24 26 27 29 27 27 28 27 27 26 30 32 28 33 36 32 35 32 33
6 4 3 2 4 9 11 15 17 17 17 17 17 17 14 5 4 4 6 8 11 14 15 18 20 23 26 27 26 26 27 27 27 28 27 27 28 28 28 29 35 33 32 34
10 6 5 2 3 4 9 19 19 16 10 15 14 10 7 7 7 6 6 9 10 15 17 19 20 23 24 23 23 24 25 26 26 26 27 26 25 25 28 34 28 30 32 35
9 7 3 3 4 5 3 2 9 18 12 15 11 7 8 6 5 7 8 8 11 14 16 17 21 22 21 22 23 25 25 25 25 26 27 27 28 29 28 27 31 34 28 28
6 5 3 3 7 6 8 7 7 11 12 14 14 10 9 6 6 13 2 7 12 11 13 17 19 20 22 21 22 24 26 26 27 29 30 31 32 33 32 32 29 27 30 31
7 7 4 4 4 5 5 5 9 4 9 16 16 12 11 7 7 2 7 12 10 10 13 16 18 20 19 20 21 23 25 27 29 30 32 33 34 34 34 33 34 30 28 29
9 8 10 8 5 6 6 14 14 6 1 14 15 12 11 9 8 11 12 9 7 11 14 17 18 17 18 19 20 22 24 25 28 29 32 34 34 34 31 31 31 32 32 31
11 11 6 8 6 9 19 15 8 5 11 14 12 11 10 9 10 11 7 6 9 12 14 15 15 17 18 18 19 21 23 26 28 30 32 34 35 35 34 33 31 29 30 33
8 7 6 11 6 6 27 6 20 10 12 12 11 10 10 9 10 7 6 7 9 11 13 13 16 18 18 17 17 20 23 26 29 31 34 35 36 35 35 34 34 33 30 29
10 13 4 7 13 12 19 18 14 14 11 10 9 10 12 11 8 8 7 7 10 11 12 14 16 17 17 16 17 19 22 25 28 30 35 36 38 39 35 35 36 36 36 36
4 17 12 8 6 4 15 24 20 17 12 10 10 9 10 10 10 8 6 6 9 10 12 13 13 15 15 16 18 19 21 24 28 30 33 37 38 38 38 34 35 35 35 34
12 10 10 6 11 12 5 18 22 20 17 13 13 12 12 11 9 7 5 7 7 9 11 11 12 13 15 16 18 19 22 25 27 31 36 40 39 39 39 41 42 35 36 33
Wind_Direction
34 106 85 77 73 97 104 102 104 86 60 85 69 70 59 55 48 42 42 38 38 35 30 28 25 22 16 10 323 274 265 254 244 235 232 234 235 238 240 234 236 235 236 236
112 81 91 96 104 103 104 104 102 96 65 111 83 72 66 56 55 50 47 47 43 37 33 31 29 30 27 18 8 331 279 263 257 246 243 239 240 241 245 243 237 241 242 239
86 111 119 109 122 111 75 83 89 96 105 118 132 70 50 59 55 48 47 46 44 37 31 27 26 26 24 23 18 9 352 287 255 256 251 246 241 242 242 238 240 240 239 240
86 120 86 111 97 303 101 80 90 120 194 99 255 131 51 48 50 45 36 33 29 26 24 22 22 23 22 20 19 18 12 3 334 261 255 247 244 241 242 242 243 239 244 243
116 136 108 88 52 307 100 290 81 140 121 157 64 156 71 38 39 29 29 26 19 19 20 19 19 20 19 17 17 20 18 12 5 322 253 253 251 249 252 249 244 244 244 249
103 105 52 57 128 30 326 157 143 161 165 177 354 272 102 44 16 12 9 15 16 13 14 17 15 13 16 19 21 20 20 18 15 9 313 267 251 255 257 257 250 248 247 246
135 92 114 35 159 145 184 189 160 192 194 66 110 83 84 58 10 16 18 20 21 19 18 15 14 12 11 16 16 19 21 20 18 19 20 338 258 259 261 262 259 256 253 249
166 152 185 27 354 70 89 264 299 191 188 103 152 150 127 87 58 33 28 23 26 26 24 22 18 13 12 12 12 16 11 13 11 15 15 22 17 279 252 267 267 261 258 255
151 110 122 74 132 266 149 137 29 94 61 236 132 119 157 120 80 52 35 33 28 26 23 20 15 13 10 12 4 7 10 5 1 2 10 12 14 24 11 287 256 263 265 258
163 131 160 137 182 85 315 123 177 186 192 210 176 222 129 167 75 42 39 29 26 20 16 12 9 8 8 7 2 356 353 359 2 356 356 2 6 12 9 21 26 258 270 255
164 225 145 190 214 157 159 169 177 58 304 269 268 140 98 149 85 351 13 14 11 8 6 4 3 2 359 1 1 2 355 343 351 359 353 352 349 354 3 6 5 22 17 3
112 107 131 98 111 261 199 165 231 259 172 232 313 31 137 148 114 330 336 345 351 351 354 355 354 353 354 354 353 353 354 355 348 343 350 346 346 343 345 348 355 2 2 1
165 142 128 133 144 191 215 175 171 127 28 221 250 119 163 168 242 305 299 311 332 342 345 345 348 350 349 349 347 348 347 349 352 347 340 347 345 341 335 339 335 339 350 351
102 146 301 172 76 137 191 193 199 211 206 239 231 213 180 228 320 300 287 306 327 334 338 340 342 344 345 343 342 342 344 342 343 345 348 343 348 339 334 325 324 328 332 339
205 168 190 208 184 194 205 199 204 214 225 225 120 259 288 300 303 284 292 301 315 327 334 338 338 338 338 339 338 339 340 342 345 347 343 349 346 340 339 320 315 319 321 324
180 152 179 253 221 226 234 230 232 233 240 248 256 269 277 271 240 262 297 303 312 325 330 332 334 335 335 335 335 338 340 341 342 340 343 342 340 342 325 338 322 314 310 310
166 155 176 188 187 262 257 229 216 223 227 231 237 249 192 223 233 266 294 310 312 322 324 327 331 332 332 333 334 333 335 335 336 340 338 336 332 328 331 338 335 322 313 306
158 170 162 161 182 235 74 110 212 220 229 224 237 244 230 238 249 277 298 310 315 318 320 325 328 329 332 331 329 330 333 334 334 334 335 336 333 332 333 329 324 325 322 306
175 160 157 198 215 313 195 204 176 183 229 222 227 218 218 230 270 274 198 320 319 314 319 322 324 327 328 328 329 330 332 333 334 335 336 336 335 333 332 326 322 317 315 316
185 223 219 193 229 224 84 140 180 160 269 198 208 211 216 227 258 311 348 316 308 312 320 322 325 326 327 328 329 331 331 333 333 334 334 334 333 331 326 322 320 318 312 304
166 192 204 207 241 280 158 149 149 185 116 162 190 205 217 233 277 307 307 307 303 321 324 325 327 327 327 329 329 331 332 332 332 331 331 331 330 326 323 320 314 312 310 305
170 169 187 208 212 252 163 157 195 129 140 166 185 200 223 253 280 290 286 292 315 323 326 325 326 326 330 331 330 330 331 331 331 331 330 329 327 327 324 320 318 313 312 308
202 198 181 195 210 134 178 166 194 179 173 182 201 215 236 260 275 269 271 298 316 321 322 326 326 328 331 330 329 327 328 331 331 331 330 330 328 327 326 324 322 320 319 311
218 179 209 179 212 201 194 203 196 194 191 195 211 244 250 247 266 258 263 296 314 320 325 328 329 326 326 329 329 326 326 330 331 330 332 331 330 330 330 327 330 327 324 321
164 169 197 231 218 207 215 215 213 211 213 227 243 227 232 236 266 242 258 298 315 321 326 326 323 321 324 326 328 329 331 330 332 332 334 335 337 334 332 329 327 324 326 319
189 180 184 208 218 201 216 213 218 220 225 232 225 230 233 246 243 223 256 296 307 314 320 322 321 322 325 329 330 332 333 337 336 336 340 343 342 340 338 335 335 336 337 341
Height
1525 1517 1526 1531 1527 1527 1528 1529 1535 1543 1547 1542 1542 1542 1545 1547 1545 1544 1542 1540 1538 1538 1538 1533 1527 1524 1520 1516 1515 1517 1522 1522 1523 1522 1522 1521 1522 1523 1524 1528 1530 1531 1533 1536
1524 1533 1538 1537 1534 1533 1530 1529 1540 1544 1546 1538 1542 1544 1546 1547 1548 1548 1546 1543 1542 1540 1537 1535 1531 1527 1524 1521 1516 1514 1514 1517 1518 1518 1518 1518 1518 1516 1516 1518 1521 1522 1525 1528
1521 1540 1540 1536 1536 1533 1536 1537 1542 1543 1546 1542 1538 1546 1548 1548 1549 1549 1548 1548 1546 1544 1541 1539 1535 1531 1528 1522 1518 1515 1511 1509 1509 1513 1513 1512 1511 1511 1510 1510 1511 1513 1516 1519
1535 1542 1538 1536 1539 1533 1535 1546 1547 1545 1534 1534 1543 1543 1552 1547 1548 1548 1551 1549 1548 1547 1545 1543 1540 1535 1531 1528 1524 1517 1511 1505 1505 1504 1506 1506 1504 1501 1502 1505 1506 1507 1508 1510
1540 1540 1538 1539 1545 1545 1544 1546 1544 1542 1533 1530 1541 1534 1553 1549 1549 1550 1551 1552 1551 1549 1547 1545 1543 1540 1537 1530 1523 1517 1512 1505 1499 1495 1497 1499 1499 1499 1500 1500 1500 1500 1501 1501
1539 1545 1544 1545 1548 1546 1545 1540 1540 1539 1536 1532 1545 1532 1550 1550 1554 1552 1553 1552 1552 1550 1548 1546 1545 1542 1538 1532 1525 1519 1512 1508 1499 1492 1490 1491 1491 1495 1496 1497 1495 1494 1494 1495
1540 1546 1548 1548 1543 1542 1537 1535 1530 1528 1526 1532 1543 1538 1548 1554 1555 1556 1555 1554 1553 1551 1548 1546 1543 1542 1537 1532 1527 1522 1516 1511 1504 1497 1487 1483 1482 1486 1488 1490 1490 1490 1488 1487
1527 1545 1544 1549 1544 1540 1541 1536 1525 1538 1529 1530 1542 1541 1545 1554 1556 1556 1555 1554 1553 1551 1549 1548 1546 1544 1539 1534 1529 1524 1520 1514 1510 1502 1494 1486 1478 1475 1478 1482 1481 1481 1481 1480
1529 1541 1549 1550 1549 1547 1542 1536 1542 1543 1547 1541 1531 1546 1551 1553 1554 1555 1555 1554 1554 1553 1551 1549 1547 1545 1542 1534 1531 1525 1519 1517 1511 1506 1500 1492 1484 1473 1468 1468 1470 1468 1473 1471
1533 1541 1548 1550 1549 1548 1539 1544 1543 1541 1542 1537 1531 1535 1529 1549 1552 1553 1554 1553 1553 1552 1551 1549 1547 1545 1541 1537 1534 1525 1521 1518 1513 1505 1499 1494 1489 1481 1476 1466 1457 1456 1464 1459
1531 1528 1548 1548 1543 1538 1545 1541 1542 1539 1542 1534 1531 1524 1539 1548 1553 1553 1553 1553 1552 1551 1550 1549 1547 1545 1542 1538 1532 1524 1521 1517 1511 1505 1499 1494 1489 1484 1475 1468 1468 1457 1455 1452
1537 1530 1532 1542 1549 1549 1545 1544 1540 1534 1544 1542 1540 1533 1544 1550 1553 1554 1553 1553 1552 1551 1550 1548 1546 1544 1541 1536 1531 1526 1520 1516 1507 1506 1498 1496 1489 1481 1477 1472 1464 1460 1455 1451
1534 1530 1534 1543 1548 1548 1543 1546 1548 1549 1549 1540 1541 1526 1546 1550 1551 1553 1552 1551 1551 1550 1548 1547 1544 1542 1539 1535 1531 1525 1518 1512 1506 1502 1497 1490 1484 1477 1474 1471 1466 1465 1456 1446
1535 1531 1527 1520 1526 1532 1542 1544 1547 1546 1550 1541 1534 1530 1542 1544 1546 1549 1549 1549 1548 1548 1547 1545 1543 1541 1538 1534 1529 1525 1520 1517 1508 1503 1492 1486 1482 1475 1471 1469 1464 1459 1455 1449
1535 1536 1536 1537 1541 1543 1541 1542 1545 1545 1543 1547 1533 1538 1536 1542 1545 1547 1548 1548 1547 1546 1545 1544 1542 1539 1536 1532 1527 1522 1518 1511 1505 1499 1495 1482 1477 1484 1464 1467 1461 1455 1448 1444
1538 1539 1540 1544 1542 1543 1543 1541 1539 1539 1539 1537 1538 1537 1538 1542 1545 1545 1545 1545 1544 1543 1543 1542 1540 1537 1534 1529 1525 1520 1514 1509 1503 1497 1490 1486 1480 1470 1481 1461 1454 1450 1442 1441
1534 1535 1539 1534 1540 1541 1540 1530 1528 1531 1531 1532 1533 1531 1535 1540 1542 1543 1543 1543 1542 1542 1541 1540 1538 1535 1532 1527 1523 1518 1513 1509 1504 1497 1491 1487 1481 1478 1466 1455 1453 1452 1440 1434
1531 1533 1537 1534 1539 1538 1517 1522 1520 1522 1525 1528 1530 1532 1536 1538 1541 1542 1541 1540 1540 1540 1539 1537 1535 1532 1528 1525 1520 1515 1511 1506 1501 1496 1490 1484 1478 1470 1462 1456 1450 1443 1438 1440
1531 1531 1542 1539 1526 1511 1515 1521 1519 1520 1519 1523 1525 1530 1535 1538 1540 1537 1538 1540 1540 1538 1537 1535 1533 1529 1525 1521 1516 1511 1506 1502 1496 1490 1484 1478 1471 1463 1455 1452 1449 1442 1436 1425
1535 1534 1534 1542 1529 1514 1508 1516 1519 1523 1518 1515 1524 1528 1532 1535 1532 1529 1536 1537 1537 1536 1534 1531 1528 1525 1522 1517 1512 1508 1503 1498 1492 1485 1479 1473 1466 1460 1453 1447 1440 1433 1428 1424
1530 1533 1535 1531 1526 1510 1507 1517 1521 1522 1511 1516 1521 1526 1530 1531 1531 1533 1534 1534 1534 1533 1530 1527 1524 1521 1517 1513 1509 1505 1501 1496 1490 1483 1477 1470 1464 1457 1451 1444 1437 1427 1421 1415
1509 1519 1524 1524 1527 1518 1506 1517 1514 1509 1513 1517 1521 1524 1527 1529 1530 1530 1530 1531 1530 1529 1527 1525 1522 1519 1514 1510 1506 1502 1498 1492 1486 1480 1474 1467 1459 1451 1444 1436 1429 1423 1415 1409
1500 1492 1499 1502 1498 1500 1502 1503 1507 1510 1512 1516 1519 1522 1524 1525 1526 1526 1527 1527 1527 1526 1524 1521 1518 1514 1511 1508 1504 1500 1495 1490 1483 1477 1470 1461 1453 1445 1437 1428 1420 1414 1410 1404
1493 1495 1494 1499 1493 1498 1500 1503 1506 1509 1511 1514 1516 1518 1520 1522 1522 1523 1524 1524 1524 1522 1520 1517 1514 1512 1508 1505 1501 1498 1493 1488 1481 1474 1465 1457 1447 1438 1430 1423 1415 1407 1400 1393
1481 1490 1488 1490 1491 1497 1498 1499 1503 1506 1508 1510 1512 1514 1516 1518 1519 1519 1520 1520 1519 1518 1516 1514 1512 1509 1505 1501 1498 1494 1490 1484 1477 1470 1462 1453 1443 1434 1426 1420 1412 1405 1398 1392
1479 1476 1479 1477 1480 1485 1488 1493 1497 1500 1504 1506 1508 1510 1512 1513 1515 1516 1516 1516 1516 1515 1513 1511 1508 1505 1502 1498 1494 1490 1486 1479 1473 1466 1458 1449 1439 1431 1423 1414 1402 1398 1392 1383